Location: Kermapucano
(48.0667°N, 3.3000°W)
Time: 20:52:06
(UTC+00:00)

Cosmos 158 Rocket - Pass Details

Date: 29 November 2020
Orbit: 698 x 794 km, 74.0° (Epoch: 27 January)

Event Time Altitude Azimuth Distance (km) Brightness Sun altitude
Exits shadow 05:50:43 32° 273° (W) 1,211 4.5 -17.6°
Maximum altitude 05:51:19 33° 258° (WSW) 1,185 4.5 -17.5°
Drops below altitude 10° 05:55:44 10° 194° (SSW) 2,203 6.4 -16.8°
Sets 05:58:16 0° 185° (S) 3,134 7.3 -16.4°
